CAPE
1708 1686 1634 1609 1596 1592 1576 1567 1489 1402 1176 1348 1520 1514 1550 1762 1824 1906 1979 2033 2040 1987 1878 1778 1786 1897 2258 2540 2624 2782 2875 2950 3087 3150 3106 2983 2878 2844 2806 2654 2752 2738 2613 2566 2616 2747 2727 2698 2629 2565 2489 2455 2412 2370 2331 2222 2132 2084 1954 2178 2174 2122 1961 1927 1916 1902 1894 1636 1810 2251 2460 2524 2370 2196 2009 1866 1722 1643 1518 1240 1119 1120 1168 1168 1180
1828 1798 1762 1733 1640 1620 1562 1505 1396 1351 1193 1262 1502 1565 1593 1739 1864 1915 1946 1967 2024 2055 1955 1819 1725 1757 1906 2250 2540 2661 2806 2904 2933 2947 2915 2806 2731 2720 2645 2632 2729 2726 2775 2792 2808 2834 2636 2563 2815 2630 2276 2384 2523 2514 2445 2376 2345 2327 2154 2280 2389 2491 2479 2262 2148 1935 1722 1691 1853 2009 2263 2540 2129 2025 1983 1868 1738 1595 1280 1216 1096 1159 1272 1325 1436
1906 1894 1872 1822 1721 1617 1563 1424 1402 1439 1286 1223 1342 1501 1615 1692 1811 1954 2045 2061 2018 1964 1973 1964 1941 1885 1806 1830 1972 2264 2554 2693 2753 2810 2831 2821 2825 2720 2608 2596 2532 2535 2551 2589 2626 2638 2632 2660 2556 2246 2148 2548 2593 2535 2461 2390 2296 2165 2195 2136 2230 2327 2496 2522 2133 1677 1699 1793 1943 2244 2359 2098 2064 2021 1974 1790 1544 1436 1191 1210 1267 1287 1235 1252 1368
1946 1971 1935 1893 1790 1664 1545 1423 1371 1472 1448 1320 1274 1335 1442 1591 1700 1797 1881 1939 1955 1989 2014 1942 1932 1921 1842 1829 1814 1869 2150 2444 2560 2637 2714 2782 2801 2702 2639 2618 2549 2471 2434 2462 2378 2348 2369 2298 2239 2202 2116 2099 2180 2163 2065 2046 1973 2022 2141 1986 1915 1857 1800 1993 2014 1734 1869 1899 1977 2109 2140 2058 2074 2036 1800 1490 1392 1445 1136 1095 1341 1332 1296 1334 1391
2030 1998 1969 1895 1805 1692 1539 1452 1384 1367 1435 1438 1408 1342 1405 1477 1554 1653 1697 1722 1754 1802 1826 1732 1592 1741 1878 1968 2014 2028 2040 2156 2391 2554 2640 2667 2668 2626 2579 2527 2493 2455 2448 2426 2694 2268 2303 2308 2356 2444 2492 2389 2301 2077 2139 2113 2078 1928 2022 1924 1697 1656 1804 2116 1954 1921 1985 1998 2020 2146 2160 2092 2016 1765 1444 1346 1376 1364 1042 874 1190 1274 1280 1428 1447
2091 2015 1958 1872 1778 1689 1564 1447 1409 1349 1360 1408 1423 1406 1402 1402 1450 1548 1625 1668 1704 1706 1560 1535 1426 1484 1680 1904 2057 2140 2138 2132 2236 2405 2481 2487 2494 2514 2502 2462 2408 2405 2438 2412 2377 2505 2528 2511 2477 2477 2387 2148 2219 2261 2249 2140 2037 1952 1833 1718 1709 1773 1597 2003 2542 2605 2549 2444 2348 2304 2144 1988 1603 1457 1303 1256 1296 1149 759 730 1007 1128 1234 1461 1474
2096 2005 1923 1842 1749 1701 1596 1448 1412 1388 1319 1341 1382 1399 1436 1479 1483 1489 1581 1630 1683 1646 1630 1651 1500 1459 1380 1451 1625 1815 1964 2068 2125 2118 2111 2194 2280 2370 2431 2393 2375 2366 2348 2367 2421 2469 2552 2611 2607 2520 2177 2088 2089 2297 2332 2234 2069 1894 1519 1606 1562 1623 1599 1549 2099 2406 2417 2272 2181 2221 1887 1607 1427 1282 1109 1090 1069 584 469 786 906 1012 1262 1436 1454
1967 1998 1960 1876 1774 1746 1698 1551 1430 1403 1368 1362 1370 1365 1374 1478 1572 1561 1415 1433 1608 1583 1681 1738 1615 1517 1376 1306 1430 1487 1618 1772 1869 1874 1884 1960 2041 2168 2253 2208 2163 2166 2198 2248 2249 2173 2264 2344 2381 2177 2095 2186 2220 2208 2136 2050 1880 1772 1684 1544 1530 1388 1346 1443 1644 1763 1866 2022 1891 1519 1526 1466 1191 848 834 835 806 852 841 797 902 1046 1359 1409 1440
1874 1704 1740 1966 1915 1817 1777 1717 1605 1515 1472 1437 1398 1364 1368 1416 1502 1585 1622 1619 1619 1658 1737 1773 1737 1565 1620 1629 1618 1668 1672 1646 1804 1894 1927 1952 1983 2025 1992 1944 1966 1967 2027 2171 2216 2240 2286 2316 2267 2276 2230 2997 3312 3069 2370 2116 1998 1900 1685 1470 1515 1471 1422 1351 1521 1712 1718 1446 1485 1386 1106 842 644 869 1214 1275 1240 1302 1246 1146 1006 1235 1319 1219 1313
1562 1365 1515 1837 1966 1928 1840 1758 1768 1734 1725 1782 1635 1371 1302 1349 1462 1463 1526 1620 1542 1577 1635 1670 1674 1570 1643 1799 1816 1815 1868 1856 2155 2207 2189 2037 1924 1938 1955 1986 2058 2117 2089 2045 2223 2261 2223 2260 2341 2858 3409 3684 4049 4468 5010 4685 3592 2802 2280 2024 1946 1672 1488 1431 1487 1518 1384 1370 1153 932 1209 1421 1530 1626 1451 1403 1434 1522 1416 1355 1256 1285 1248 1178 1120
1683 1502 1595 1850 1951 1952 1853 1801 1791 1805 1860 1908 1854 1527 1305 1284 1352 1343 1271 1271 1293 1272 1320 1400 1449 1497 1546 1756 1876 1910 1965 2097 2288 2065 2024 2294 2580 2073 2143 2185 2185 2193 2180 2149 2132 2059 2032 2161 2194 2277 3350 3939 3793 4143 3502 3386 4350 4569 3833 3165 2781 2164 1682 1474 1400 1320 1249 1135 920 1062 1491 1712 1760 1570 1439 1407 1430 1339 1320 1360 1346 1297 1255 1229 1295
1648 1508 1681 1888 2002 2007 1989 1879 1764 1726 1756 1793 1886 1738 1581 1399 1247 1196 1233 1174 1200 1161 1185 1207 1254 1349 1424 1507 1711 1825 1918 2053 2067 2086 2078 2087 2572 2312 2284 2323 2348 2350 2317 2246 2197 2054 1965 2027 1978 1873 1763 1645 1676 1515 2380 3511 2345 2635 2664 2688 3012 3129 2082 1648 1503 1388 1368 1275 1056 1080 1451 1761 1674 1493 1472 1375 1335 1298 1371 1392 1486 1510 1602 1549 1597
1494 1529 1778 2002 2106 2088 2084 1934 1474 1022 1001 1257 1297 1516 1485 1327 1084 1106 976 1075 1032 933 1162 1211 1222 1236 1266 1382 1524 1653 1738 1784 1809 1862 1950 2036 2109 2136 2090 1959 1983 2037 2080 2092 2088 1961 1848 1760 1663 1664 1663 2105 4275 2212 1896 1868 2650 2721 2750 2638 2871 2683 2286 1855 1374 1325 1270 1162 1122 1118 1322 1670 1566 1546 1401 1368 1484 1499 1618 1708 1789 1898 1864 1807 1842
1380 1546 1720 1848 1937 1809 1649 1453 1160 1015 1060 1082 1411 1164 1271 1151 1089 1008 1138 1051 1201 1183 1233 1291 1313 1344 1349 1403 1473 1561 1635 1690 1717 1744 1797 1873 1957 1978 1942 1690 1654 1740 1823 1889 1947 1905 1700 1446 1524 1570 1510 1901 2038 1759 1575 1961 2496 2548 2587 2674 2632 2682 2415 2241 2006 1524 1362 1341 1306 1717 1809 1524 1622 1721 1764 1683 1628 1765 1820 1902 1941 1913 1855 1858 1762
1279 1227 1317 1399 1167 1000 994 912 819 979 877 983 1109 1321 922 1099 1066 1314 1158 937 1137 1196 1272 1363 1394 1431 1468 1490 1494 1468 1435 1474 1542 1618 1692 1741 1800 1862 1813 1583 1423 1370 1424 1624 1799 1877 1736 1531 1459 1470 1453 1280 1405 1811 1622 1929 2228 2232 2100 2311 2526 2440 2400 2416 2335 2133 2056 2162 1945 1745 1465 1370 1579 1717 1664 1606 1816 2045 2013 1969 1798 1697 1646 1518 1228
1100 1331 1493 1487 1328 1124 982 886 737 786 876 998 1192 1321 1238 1174 1381 1387 1200 992 1069 1031 1090 1167 1167 1291 1404 1446 1438 1368 1306 1284 1341 1469 1600 1690 1748 1740 1632 1464 1264 1139 1191 1346 1452 1529 1586 1530 1453 1330 1510 1384 1470 1492 1587 2164 2422 2207 2198 2461 2251 2090 2029 2007 2062 2199 2229 2023 1820 1543 1408 1259 1313 1440 1612 1845 1838 1714 1636 1496 1498 1393 1233 1098 1095
787 614 877 1246 1378 1582 1442 1158 889 956 1037 1105 1087 1187 1434 1506 1759 1668 1434 1314 1175 1294 1065 901 920 919 1008 1114 1173 1194 1217 1199 1168 1138 1211 1255 1240 1234 1258 1255 1156 1010 968 994 862 848 926 1193 1194 1422 1424 1373 1142 910 1205 2716 1831 1963 1899 2025 2129 1965 1959 1951 2017 2056 2075 1985 1680 1325 1078 1158 1208 1387 1427 1366 1375 1539 1486 1292 1220 1003 978 866 1003
658 579 729 839 1066 1154 1267 1365 1200 1086 1048 1141 1076 1159 1220 1279 1268 1252 1324 1424 1465 1314 1231 1330 1202 997 917 935 873 876 887 909 919 888 827 705 648 619 677 651 630 715 805 924 863 653 955 2562 1587 1015 911 793 704 676 690 1973 1318 1266 1475 1656 1765 1830 1800 1778 1787 1749 1563 1313 1128 960 1030 1126 1092 1077 1026 929 1110 1260 1126 895 795 843 734 630 452
609 597 598 620 687 745 797 890 862 800 755 661 670 661 611 723 862 822 826 808 833 844 899 959 1068 1190 1260 1242 1154 1133 1036 1126 1122 1068 972 885 811 710 720 677 633 609 636 776 1210 1213 1268 2993 2381 972 910 713 594 568 653 1014 1018 976 1114 1216 1314 1357 1403 1344 1227 1085 1006 975 905 802 737 670 636 572 588 539 678 742 715 810 607 479 339 282 208
270 324 309 281 296 299 228 237 230 304 354 359 272 305 368 410 448 464 534 539 580 624 647 660 708 675 604 656 827 1054 1075 959 1059 1109 1067 1021 998 961 915 845 1028 784 660 663 1042 1344 1791 1824 1149 830 804 807 823 842 843 823 802 818 851 871 878 918 929 922 971 1000 1003 922 838 705 620 545 500 460 444 446 414 366 339 375 274 171 166 15 26
320 306 340 354 381 347 298 374 437 442 361 273 224 247 300 342 394 422 446 453 462 521 604 634 646 699 712 625 558 594 725 862 904 840 842 881 878 849 816 818 1062 1133 870 858 926 1552 1681 1503 1130 1000 969 926 932 949 934 918 903 914 994 1032 1055 1061 1040 971 900 794 761 677 621 577 536 488 446 387 350 297 326 279 221 168 113 5 0 0 0
234 191 163 159 186 225 246 255 208 273 254 255 276 250 264 308 372 444 409 418 411 427 444 488 534 655 665 714 776 729 590 519 574 713 874 859 756 636 596 547 530 647 687 726 750 791 1385 1535 1215 1053 1037 1035 1046 1040 1008 979 958 909 968 978 948 900 858 796 742 695 646 584 578 527 457 351 317 297 272 253 220 196 184 116 88 3 0 0 0
138 149 134 148 156 150 144 87 154 147 131 144 179 232 228 298 341 354 360 348 346 390 442 468 483 493 493 528 674 767 761 679 625 578 528 466 455 420 412 441 439 459 808 839 642 647 863 1048 1087 1053 1025 1048 1021 956 896 858 838 856 841 828 841 833 803 731 677 596 507 455 344 256 222 235 236 246 228 187 94 82 76 47 23 0 0 0 0
0 0 0 78 87 22 0 0 94 95 87 58 112 109 186 212 211 363 292 306 331 336 336 225 312 336 398 419 474 548 610 609 575 517 496 458 398 336 286 282 394 459 340 528 648 735 819 930 1099 1090 1033 914 787 746 745 721 683 666 730 766 765 732 673 603 518 349 298 230 217 217 196 150 135 140 116 87 107 94 76 44 0 0 0 0 0
0 0 0 0 0 0 0 0 0 0 36 28 60 88 76 53 164 242 337 358 289 280 270 302 315 326 304 294 184 249 114 290 319 340 342 358 340 284 228 168 89 384 409 403 335 366 744 1078 1039 904 778 689 604 510 429 357 326 300 262 280 376 430 364 337 259 247 242 240 230 212 194 145 117 99 108 100 51 22 0 0 0 0 0 0 0
0 0 0 0 0 0 0 0 0 0 0 37 57 90 101 113 136 222 318 359 314 290 308 306 315 289 212 175 182 201 223 237 225 209 152 146 0 0 0 0 0 118 343 452 451 489 505 812 686 749 703 564 481 330 205 127 81 56 50 59 93 185 313 284 270 274 256 222 208 182 158 130 117 79 26 0 0 0 0 0 0 0 0 0 0
0 0 0 0 0 0 0 0 0 0 0 0 21 58 74 116 153 205 292 320 275 238 216 289 304 219 129 13 3 18 2 27 0 2 0 0 0 0 0 26 0 70 276 306 399 470 564 513 449 407 307 271 216 151 81 18 0 66 112 90 117 245 277 267 248 235 194 190 176 145 118 32 0 0 0 0 0 0 0 0 0 0 0 0 0
0 0 0 0 0 0 0 0 0 0 0 0 0 0 60 108 141 217 215 201 79 126 0 189 218 158 20 5 0 0 0 0 0 0 71 4 50 122 82 20 0 82 30 32 69 134 215 133 145 183 151 108 78 0 0 0 11 90 159 177 225 230 230 196 177 155 133 90 27 0 0 0 0 0 0 0 0 0 0 0 0 0 0 0 0
0 0 0 0 0 0 0 0 0 0 0 0 0 0 0 0 65 152 182 212 104 0 10 8 6 8 12 27 25 0 1 0 0 3 96 136 162 147 141 68 10 0 0 0 1 0 65 21 86 89 48 0 0 0 0 0 31 32 134 184 200 178 136 90 74 2 0 0 0 0 0 0 0 0 0 0 0 0 0 0 0 0 0 0 0
0 0 0 0 0 0 0 0 0 0 0 0 0 0 1 0 0 0 14 47 84 101 37 0 3 0 5 1 0 0 0 0 0 0 12 84 158 143 106 96 88 54 50 25 0 56 0 47 65 82 69 50 53 76 71 39 0 0 0 0 0 0 0 0 0 0 0 0 0 0 0 0 0 0 0 0 0 0 0 0 0 0 0 0 0
0 0 0 0 0 0 0 0 0 0 0 0 0 0 0 0 0 0 0 0 3 70 85 59 36 1 4 19 2 22 0 0 0 0 0 14 68 114 149 130 131 192 179 98 125 95 75 98 103 80 94 88 43 0 0 0 0 0 0 0 0 0 0 0 0 0 0 0 0 0 0 0 0 0 0 0 0 0 0 0 0 0 0 0 0
0 0 0 0 4 1 0 0 0 0 0 0 0 0 0 0 0 0 0 0 0 0 4 26 18 10 5 0 7 7 2 0 0 0 0 0 0 58 86 98 113 124 160 147 115 112 96 92 0 22 0 0 0 0 0 0 0 0 0 0 0 0 0 0 0 0 0 0 0 0 0 0 0 0 0 0 0 0 0 0 0 0 0 0 0
0 0 0 0 0 0 0 0 0 0 0 0 0 0 0 0 0 0 0 0 0 0 0 0 1 7 12 6 0 0 2 1 0 0 0 0 0 0 40 45 37 92 98 43 0 0 0 0 0 0 0 0 0 0 0 0 0 0 0 0 0 0 0 0 0 0 0 0 0 0 0 0 0 0 0 0 0 0 0 0 0 0 0 0 0
0 0 0 0 0 0 0 0 0 0 0 0 0 0 0 0 0 0 0 0 0 0 0 0 0 0 0 0 0 0 0 0 0 0 0 0 0 0 0 0 0 4 0 0 0 0 0 0 0 0 0 0 0 0 0 0 0 0 0 1 3 1 1 1 1 0 0 0 0 0 0 0 0 0 0 0 0 0 0 0 0 0 0 0 0
0 0 0 0 0 0 0 0 0 0 0 0 0 0 0 15 0 0 0 0 0 0 0 0 0 0 0 0 0 0 0 0 0 0 0 0 0 0 0 0 0 0 0 0 0 0 0 0 0 0 0 0 0 0 0 0 0 1 2 2 2 2 1 0 0 0 0 0 0 0 0 0 0 0 0 0 0 0 0 0 0 0 0 0 0
0 0 0 0 0 0 0 0 0 0 0 0 0 0 19 70 18 0 0 0 0 0 0 0 0 0 0 0 0 0 0 0 0 0 0 0 0 0 0 0 0 0 0 0 0 0 0 0 0 0 0 0 0 0 0 0 0 0 0 0 0 0 0 0 0 0 0 0 0 0 0 0 0 0 0 0 0 0 0 0 0 0 0 0 0
0 0 0 0 0 0 0 0 0 0 0 0 0 0 7 20 46 18 0 0 0 0 0 0 0 0 0 0 0 0 0 0 0 0 0 0 0 0 0 0 0 0 0 0 0 0 0 0 0 0 0 0 0 0 0 0 0 0 0 0 0 0 0 0 0 0 0 0 0 0 0 0 0 0 0 0 0 0 0 0 0 0 0 0 0
0 0 0 0 0 0 0 0 0 0 0 0 0 0 0 0 25 30 6 0 0 0 0 0 0 0 0 0 0 0 0 0 0 0 0 0 0 0 0 0 0 0 0 0 0 0 0 0 0 0 0 0 0 0 0 0 0 0 0 0 0 0 0 0 0 0 0 0 0 0 0 0 0 0 0 0 0 0 0 0 0 0 0 0 0
0 0 0 0 0 0 0 0 0 0 0 0 0 5 1 0 0 0 0 0 0 0 0 0 0 0 0 0 0 0 0 0 0 0 0 0 0 0 0 0 0 0 0 0 0 0 0 2 1 1 1 2 1 1 1 0 0 0 0 0 0 0 1 2 2 2 2 3 2 1 1 2 2 1 1 0 0 0 0 0 0 0 0 0 0
0 0 0 0 0 0 0 0 2 0 4 0 0 0 0 0 0 0 0 0 0 0 0 0 0 0 0 0 0 0 0 0 0 0 0 0 0 0 0 0 0 0 0 0 1 1 2 7 10 8 9 9 7 6 4 4 3 3 3 2 4 5 6 7 8 8 8 7 6 5 5 5 4 4 3 2 0 0 0 0 0 0 0 0 0
0 0 0 0 0 0 0 0 0 0 0 0 0 0 0 0 0 0 0 0 0 0 0 0 0 0 0 0 0 0 0 0 0 0 0 0 0 0 0 0 0 0 0 0 0 0 0 1 4 7 10 10 10 8 7 6 6 8 9 10 8 5 4 4 5 6 6 7 8 8 6 5 3 2 0 0 0 0 0 0 0 0 0 0 0
0 0 0 0 0 0 0 0 0 0 1 0 0 0 0 0 0 0 0 0 0 0 0 0 0 0 0 0 0 0 0 0 0 0 0 0 0 0 0 0 0 0 0 0 0 0 0 0 0 0 1 4 7 7 4 3 4 4 4 5 5 5 4 3 2 2 2 2 2 3 3 1 1 0 0 0 0 0 0 0 0 0 0 0 0
0 0 0 0 0 0 0 0 0 0 0 0 0 0 0 0 0 0 0 0 0 0 0 0 0 0 0 0 0 0 0 0 0 0 0 0 0 0 0 0 0 0 0 0 0 0 0 0 0 0 0 0 0 0 0 0 0 0 0 0 0 0 0 0 0 0 0 0 0 0 0 0 0 0 0 0 0 0 0 0 0 0 0 0 0
28 43 0 3 0 0 0 0 0 0 0 0 0 0 0 0 0 0 0 0 0 0 0 0 0 0 0 0 0 0 0 0 0 0 0 0 0 0 0 0 0 0 0 0 0 0 0 0 0 0 0 0 0 0 0 0 0 0 0 0 0 0 0 0 0 0 0 0 0 0 0 0 0 0 0 0 0 0 0 0 0 0 0 0 0
26 54 23 0 0 0 0 0 0 0 0 0 0 0 0 0 0 0 0 0 0 0 0 0 0 0 0 0 0 0 0 0 0 0 0 0 0 0 0 0 0 0 0 0 0 0 0 0 0 0 0 0 0 0 0 0 0 0 0 0 0 0 0 0 0 0 0 0 0 0 0 0 0 0 0 0 0 0 0 0 0 0 0 0 0
75 32 27 0 0 0 0 0 10 0 0 0 0 0 0 0 0 0 0 0 0 0 0 0 0 0 0 0 0 0 0 0 0 0 0 0 0 0 0 0 0 0 0 0 0 0 0 0 0 0 0 0 0 0 0 0 0 0 0 0 0 0 0 0 0 0 0 0 0 0 0 0 0 0 0 0 0 0 0 0 0 0 0 0 0
165 120 91 0 0 0 16 11 5 2 0 0 2 2 0 0 0 1 0 0 0 0 0 0 0 0 0 0 0 0 0 0 0 0 0 0 0 0 0 0 0 0 0 0 0 0 0 0 0 1 0 0 1 1 0 1 0 0 0 0 0 0 0 0 0 0 0 0 0 0 0 0 0 0 0 0 0 0 0 0 0 0 0 0 4
227 142 76 39 0 0 0 0 4 36 8 6 4 3 4 2 0 1 2 2 1 0 0 0 0 0 0 0 0 0 0 0 0 0 0 0 0 0 0 0 0 0 0 0 0 0 1 1 1 1 2 2 1 0 0 1 0 0 0 0 0 0 0 0 0 0 0 0 0 0 0 0 0 0 0 0 0 0 0 0 0 0 0 10 25
216 161 96 14 42 0 0 0 0 0 0 0 1 0 5 0 0 0 0 0 1 1 0 0 0 0 0 0 0 0 0 0 0 0 0 0 0 0 0 0 0 0 0 0 0 0 0 2 1 1 0 1 0 0 0 0 0 0 0 0 0 0 0 0 0 0 0 0 0 0 0 0 0 0 0 0 0 0 0 0 0 4 13 18 6
53 0 27 44 38 50 19 0 4 9 0 2 2 1 21 4 1 0 0 1 3 7 8 7 5 3 0 0 0 0 0 0 0 0 0 0 0 0 0 0 0 0 0 0 0 0 0 3 2 2 2 2 2 1 0 0 0 0 0 0 0 0 0 0 0 0 0 0 0 0 0 0 0 0 0 0 0 0 0 1 1 20 17 0 2
39 26 17 4 26 31 50 0 0 0 0 0 2 8 9 10 0 2 3 2 3 4 7 10 7 2 0 0 0 0 0 0 0 0 0 0 0 0 0 0 0 0 0 0 0 0 0 3 2 1 2 1 0 0 0 0 0 0 0 0 0 0 0 0 0 0 0 0 0 0 0 0 0 0 0 0 0 0 0 12 21 10 0 1 1
Wind_Speed
13 14 15 14 14 12 12 12 11 10 9 9 8 7 7 7 5 5 8 5 6 7 7 6 7 6 6 5 5 6 6 6 5 6 6 5 4 4 5 5 5 4 5 5 5 5 5 5 4 4 5 5 4 5 6 8 10 9 9 9 8 8 9 7 4 0 2 3 3 3 3 5 2 5 2 1 1 2 4 8 8 9 10 10 10
15 16 17 16 15 15 14 15 14 13 11 11 9 9 10 10 9 10 8 7 8 7 7 8 8 7 7 6 6 6 6 6 6 7 6 6 5 6 4 5 6 5 6 5 5 5 6 5 4 4 5 6 6 5 6 6 7 8 9 10 9 9 9 8 6 5 3 3 3 4 4 6 4 6 5 3 3 5 4 5 7 10 10 9 8
17 18 18 17 17 17 17 17 16 15 13 14 12 12 13 13 13 12 10 10 10 9 9 9 9 9 7 7 7 7 7 7 7 7 6 6 6 6 5 6 6 6 6 5 5 7 7 6 4 5 6 6 6 6 6 6 7 8 8 10 9 8 9 9 9 6 4 3 5 4 5 5 7 6 5 7 9 10 9 9 8 8 9 9 7
20 20 19 18 18 18 18 19 18 17 16 16 15 15 15 15 16 14 12 12 11 11 11 11 11 10 9 8 8 8 8 8 8 7 7 7 7 6 7 7 7 7 6 6 6 7 7 7 5 6 6 6 5 5 5 7 7 8 8 9 9 7 8 9 8 8 7 6 5 7 6 6 6 8 9 10 10 9 12 12 12 11 8 6 7
22 22 21 20 20 19 19 19 19 19 18 19 17 17 17 17 17 15 15 14 14 14 13 14 13 12 10 10 9 9 9 9 9 8 8 8 8 8 8 8 8 8 8 7 7 7 7 7 5 6 8 8 7 7 7 7 8 9 8 8 8 7 8 9 9 9 9 6 5 6 8 8 8 8 12 13 10 11 13 13 13 11 9 8 8
22 22 22 22 22 21 20 20 19 19 20 20 18 18 18 18 18 17 16 15 16 15 15 15 14 13 12 12 12 11 11 11 10 9 9 9 9 8 9 9 8 8 8 8 8 9 8 7 6 6 6 8 7 7 9 9 9 9 8 7 8 9 9 9 11 11 11 7 8 6 9 9 10 10 12 15 13 12 12 12 12 12 12 8 8
25 23 22 22 23 22 21 21 21 21 22 22 22 21 19 19 18 17 17 16 16 16 16 16 16 15 14 14 14 13 13 13 12 11 11 11 11 10 10 10 10 10 9 9 9 9 10 9 8 8 7 7 7 8 9 10 11 10 10 9 10 12 10 10 11 11 11 9 9 10 9 9 13 11 11 13 14 16 16 13 12 13 13 12 8
34 32 26 23 24 22 22 24 24 24 25 25 23 21 21 20 19 18 19 17 16 17 17 17 16 17 16 16 16 16 15 15 15 14 14 14 14 13 12 12 12 12 11 9 9 10 11 11 11 10 10 10 10 10 11 10 11 10 9 11 12 13 11 11 13 13 13 13 13 12 14 13 11 13 13 14 14 14 16 17 13 11 10 12 12
29 27 24 24 24 24 24 24 25 24 23 24 23 22 21 21 21 21 20 19 19 18 18 18 18 18 19 19 19 18 17 17 18 18 17 16 16 15 14 14 14 14 13 11 10 10 11 11 12 12 13 12 12 12 13 14 14 11 10 13 13 14 13 13 14 15 15 17 14 17 17 14 13 14 13 15 15 14 13 15 15 13 13 12 9
32 29 29 29 29 29 27 25 24 24 24 23 23 22 22 23 23 22 21 21 21 22 22 21 20 20 21 21 21 20 20 21 20 17 18 19 17 17 17 17 16 16 15 14 13 13 12 12 12 10 10 10 10 10 11 12 13 15 13 16 15 16 15 15 15 15 17 17 16 18 17 15 14 15 17 17 16 16 14 14 14 12 14 14 15
34 32 33 33 32 30 30 31 31 26 24 24 24 23 22 23 24 24 23 24 24 24 24 23 22 23 22 23 22 21 22 22 19 18 16 16 20 20 19 18 18 17 16 16 14 14 14 14 14 13 15 17 18 16 16 16 15 15 14 16 17 18 18 17 15 18 19 19 20 22 21 18 15 17 16 15 17 17 16 16 15 15 16 16 14
37 34 34 35 35 34 34 34 34 34 32 29 30 30 31 32 28 24 22 23 25 26 25 23 23 23 24 23 22 22 22 21 19 19 18 18 20 22 21 20 20 18 17 17 16 16 16 16 18 19 19 20 20 21 23 24 24 22 20 17 16 15 17 19 18 20 20 19 19 20 22 19 18 18 16 17 17 17 17 17 17 17 17 18 18
41 40 41 40 38 38 38 37 36 37 36 34 29 29 30 33 35 35 33 31 29 27 25 25 23 24 24 23 22 23 23 21 19 20 20 20 20 22 23 22 20 19 18 18 17 17 17 18 20 20 20 17 24 28 27 27 27 26 25 23 20 19 17 17 18 21 22 22 22 21 22 21 20 20 21 19 20 18 18 18 18 19 20 19 18
44 44 43 41 39 36 36 35 33 34 34 33 31 29 29 31 31 28 28 31 35 32 30 29 28 27 26 25 24 24 23 22 20 20 20 21 21 22 23 22 21 19 19 19 18 18 19 21 21 21 23 26 28 29 30 30 29 29 29 28 27 25 25 23 22 25 26 25 25 24 24 23 17 19 19 22 21 20 20 19 20 20 20 19 19
39 38 39 41 41 39 37 35 33 32 31 30 29 28 30 35 36 32 28 28 32 32 31 31 29 29 29 29 29 27 26 27 22 20 20 21 23 24 24 23 22 21 20 20 19 20 21 22 23 24 27 28 29 30 32 32 33 33 32 31 32 31 30 29 28 29 29 28 28 25 25 24 19 18 20 22 23 22 23 22 21 22 21 20 21
35 34 35 38 40 38 35 35 36 35 35 34 32 28 31 35 33 28 29 32 31 30 28 27 27 28 29 30 29 26 26 28 27 25 23 22 22 23 23 23 22 21 20 20 21 22 23 25 28 30 31 31 33 33 33 34 35 35 35 35 35 35 34 32 33 32 29 28 29 28 27 21 18 22 23 25 25 25 23 23 24 23 23 23 23
35 32 33 34 37 38 37 37 37 39 39 38 36 32 31 32 30 31 35 31 27 27 27 26 27 27 25 25 26 26 26 28 28 26 25 25 24 23 23 23 23 22 21 21 22 24 27 29 31 34 35 33 34 35 34 36 36 37 37 37 37 37 36 32 34 35 33 31 28 25 23 22 26 30 31 28 28 27 27 28 25 23 24 22 23
31 30 30 32 33 32 32 32 34 35 35 33 32 32 32 33 33 36 35 31 29 29 30 29 31 31 27 25 25 27 27 30 30 29 28 27 25 25 26 26 24 25 24 25 26 26 28 34 36 37 38 36 37 36 34 33 35 36 36 37 38 39 36 33 34 35 33 30 31 28 27 29 33 35 37 37 33 30 31 30 25 26 26 24 24
26 26 27 29 28 27 27 29 30 31 29 26 25 27 27 28 31 34 35 32 30 32 32 32 31 30 28 28 27 28 33 35 38 37 33 31 30 29 29 29 27 27 28 30 32 32 30 35 40 39 39 40 40 37 35 33 32 32 32 34 36 38 36 35 37 36 35 34 32 31 32 34 34 34 34 37 37 34 32 30 28 29 27 26 25
21 22 25 27 28 27 28 29 29 29 28 25 25 25 25 24 24 25 26 27 26 27 29 30 30 30 31 32 33 37 37 36 38 38 37 35 33 32 31 31 29 31 34 36 37 38 38 40 41 42 42 40 39 38 36 34 32 33 34 35 36 36 35 35 36 38 37 37 36 35 36 35 35 35 35 35 35 34 34 33 33 31 30 nan nan
20 20 22 26 27 27 27 25 25 28 29 26 24 26 26 23 21 21 22 23 23 22 23 26 27 29 32 32 35 40 38 38 40 42 42 40 38 36 33 32 34 36 38 39 38 39 42 43 42 41 39 38 38 37 36 36 38 38 39 40 39 38 36 34 35 40 39 40 41 40 39 38 38 37 37 37 36 35 36 37 36 nan nan nan nan
24 24 25 27 28 29 30 28 26 27 27 26 24 25 25 26 25 23 22 22 21 20 22 22 24 28 32 34 36 37 37 40 36 40 41 43 43 42 36 33 35 38 37 39 39 40 42 45 45 42 40 40 38 37 39 40 38 37 36 38 42 40 33 32 32 36 41 43 43 43 41 40 39 39 38 38 38 38 39 40 nan nan nan nan nan
27 27 28 30 32 32 32 nan 27 25 25 24 24 24 24 26 27 28 25 24 25 25 26 27 27 28 30 31 31 32 33 34 37 34 37 39 40 40 37 33 27 28 34 36 38 40 41 42 42 43 41 41 41 42 40 36 30 27 29 32 31 29 28 31 34 39 41 41 42 43 41 40 40 39 39 39 nan nan nan nan nan nan nan nan nan
nan nan nan nan nan nan nan nan nan nan nan nan 30 30 30 29 31 31 30 30 31 32 31 31 33 33 33 33 32 32 32 33 35 38 35 37 38 37 37 36 35 28 27 28 30 34 38 38 38 40 40 40 40 38 32 25 22 27 28 26 23 24 27 32 37 39 41 40 41 40 39 37 38 39 38 nan 39 nan nan nan nan nan nan nan nan
nan nan nan nan nan nan nan nan nan nan nan nan nan nan nan nan 35 34 34 35 35 35 35 35 35 35 35 35 35 35 36 36 35 36 40 39 38 38 37 37 nan 39 31 32 37 40 40 42 43 40 38 32 29 27 22 18 21 25 25 25 26 28 30 33 34 37 39 40 39 39 38 38 39 nan 37 38 nan nan nan nan nan nan nan nan nan
nan nan nan nan nan nan nan nan nan nan nan nan nan nan 33 34 35 36 36 37 37 38 37 37 38 39 39 38 37 36 37 37 37 37 37 36 nan nan nan nan nan 36 34 34 38 39 36 31 30 29 27 24 23 21 20 22 nan nan nan nan nan 31 33 34 35 37 37 37 39 40 39 39 40 nan nan nan nan nan nan nan nan nan nan nan nan
nan nan nan nan nan nan nan nan nan nan nan nan nan nan nan 36 38 39 39 38 40 40 41 42 42 42 42 nan nan nan nan nan nan nan nan nan nan nan nan nan nan nan 29 28 29 26 20 20 21 18 20 22 26 27 nan nan nan nan 31 nan 32 33 33 35 37 39 38 39 39 40 39 nan nan nan nan nan nan nan nan nan nan nan nan nan nan
nan nan nan nan nan nan nan nan nan nan nan nan nan nan nan 38 41 42 40 41 nan 43 nan 46 45 44 nan nan nan nan nan nan nan nan nan nan nan 36 nan nan nan nan nan nan nan 25 24 24 27 30 31 32 nan nan nan nan nan nan 34 33 34 36 39 43 42 40 40 nan nan nan nan nan nan nan nan nan nan nan nan nan nan nan nan nan nan
nan nan nan nan nan nan nan nan nan nan nan nan nan nan nan nan nan 42 43 40 40 nan nan nan nan nan nan nan nan nan nan nan nan nan nan 41 41 39 39 nan nan nan nan nan nan nan nan nan nan nan nan nan nan nan nan nan nan nan 37 37 38 38 38 nan nan nan nan nan nan nan nan nan nan nan nan nan nan nan nan nan nan nan nan nan nan
nan nan nan nan nan nan nan nan nan nan nan nan nan nan nan nan nan nan nan nan nan 46 nan nan nan nan nan nan nan nan nan nan nan nan nan nan 42 41 39 nan nan nan nan nan nan nan nan nan nan nan nan nan nan nan nan nan nan nan nan nan nan nan nan nan nan nan nan nan nan nan nan nan nan nan nan nan nan nan nan nan nan nan nan nan nan
nan nan nan nan nan nan nan nan nan nan nan nan nan nan nan nan nan nan nan nan nan nan nan nan nan nan nan nan nan nan nan nan nan nan nan nan nan 42 41 41 42 40 41 nan 44 nan nan nan 47 nan nan nan nan nan nan nan nan nan nan nan nan nan nan nan nan nan nan nan nan nan nan nan nan nan nan nan nan nan nan nan nan nan nan nan nan
nan nan nan nan nan nan nan nan nan nan nan nan nan nan nan nan nan nan nan nan nan nan nan nan nan nan nan nan nan nan nan nan nan nan nan nan nan nan nan nan 45 44 43 40 48 49 nan nan nan nan nan nan nan nan nan nan nan nan nan nan nan nan nan nan nan nan nan nan nan nan nan nan nan nan nan nan nan nan nan nan nan nan nan nan nan
nan nan nan nan nan nan nan nan nan nan nan nan nan nan nan nan nan nan nan nan nan nan nan nan nan nan nan nan nan nan nan nan nan nan nan nan nan nan nan nan nan nan nan nan nan nan nan nan nan nan nan nan nan nan nan nan nan nan nan nan nan nan nan nan nan nan nan nan nan nan nan nan nan nan nan nan nan nan nan nan nan nan nan nan nan
nan nan nan nan nan nan nan nan nan nan nan nan nan nan nan nan nan nan nan nan nan nan nan nan nan nan nan nan nan nan nan nan nan nan nan nan nan nan nan nan nan nan nan nan nan nan nan nan nan nan nan nan nan nan nan nan nan nan nan nan nan nan nan nan nan nan nan nan nan nan nan nan nan nan nan nan nan nan nan nan nan nan nan nan nan
nan nan nan nan nan nan nan nan nan nan nan nan nan nan nan nan nan nan nan nan nan nan nan nan nan nan nan nan nan nan nan nan nan nan nan nan nan nan nan nan nan nan nan nan nan nan nan nan nan nan nan nan nan nan nan nan nan nan nan nan nan nan nan nan nan nan nan nan nan nan nan nan nan nan nan nan nan nan nan nan nan nan nan nan nan
nan nan nan nan nan nan nan nan nan nan nan nan nan nan nan nan nan nan nan nan nan nan nan nan nan nan nan nan nan nan nan nan nan nan nan nan nan nan nan nan nan nan nan nan nan nan nan nan nan nan nan nan nan nan nan nan nan nan nan nan nan nan nan nan nan nan nan nan nan nan nan nan nan nan nan nan nan nan nan nan nan nan nan nan nan
nan nan nan nan nan nan nan nan nan nan nan nan nan nan nan nan nan nan nan nan nan nan nan nan nan nan nan nan nan nan nan nan nan nan nan nan nan nan nan nan nan nan nan nan nan nan nan nan nan nan nan nan nan nan nan nan nan nan nan nan nan nan nan nan nan nan nan nan nan nan nan nan nan nan nan nan nan nan nan nan nan nan nan nan nan
nan nan nan nan nan nan nan nan nan nan nan nan nan nan nan nan nan nan nan nan nan nan nan nan nan nan nan nan nan nan nan nan nan nan nan nan nan nan nan nan nan nan nan nan nan nan nan nan nan nan nan nan nan nan nan nan nan nan nan nan nan nan nan nan nan nan nan nan nan nan nan nan nan nan nan nan nan nan nan nan nan nan nan nan nan
nan nan nan nan nan nan nan nan nan nan nan nan nan nan nan nan nan nan nan nan nan nan nan nan nan nan nan nan nan nan nan nan nan nan nan nan nan nan nan nan nan nan nan nan nan nan nan nan nan nan nan nan nan nan nan nan nan nan nan nan nan nan nan nan nan nan nan nan nan nan nan nan nan nan nan nan nan nan nan nan nan nan nan nan nan
nan nan nan nan nan nan nan nan nan nan nan nan nan nan nan nan nan nan nan nan nan nan nan nan nan nan nan nan nan nan nan nan nan nan nan nan nan nan nan nan nan nan nan nan nan nan nan nan nan nan nan nan nan nan nan nan nan nan nan nan nan nan nan nan nan nan nan nan nan nan nan nan nan nan nan nan nan nan nan nan nan nan nan nan nan
nan nan nan nan nan nan nan nan nan nan nan nan nan nan nan nan nan nan nan nan nan nan nan nan nan nan nan nan nan nan nan nan nan nan nan nan nan nan nan nan nan nan nan nan nan nan nan nan nan nan nan nan nan nan nan nan nan nan nan nan nan nan nan nan nan nan nan nan nan nan nan nan nan nan nan nan nan nan nan nan nan nan nan nan nan
nan nan nan nan nan nan nan nan nan nan nan nan nan nan nan nan nan nan nan nan nan nan nan nan nan nan nan nan nan nan nan nan nan nan nan nan nan nan nan nan nan nan nan nan nan nan nan nan nan nan nan nan nan nan nan nan nan nan nan nan nan nan nan nan nan nan nan nan nan nan nan nan nan nan nan nan nan nan nan nan nan nan nan nan nan
nan nan nan nan nan nan nan nan nan nan nan nan nan nan nan nan nan nan nan nan nan nan nan nan nan nan nan nan nan nan nan nan nan nan nan nan nan nan nan nan nan nan nan nan nan nan nan nan nan nan nan nan nan nan nan nan nan nan nan nan nan nan nan nan nan nan nan nan nan nan nan nan nan nan nan nan nan nan nan nan nan nan nan nan nan
nan nan nan nan nan nan nan nan nan nan nan nan nan nan nan nan nan nan nan nan nan nan nan nan nan nan nan nan nan nan nan nan nan nan nan nan nan nan nan nan nan nan nan nan nan nan nan nan nan nan nan nan nan nan nan nan nan nan nan nan nan nan nan nan nan nan nan nan nan nan nan nan nan nan nan nan nan nan nan nan nan nan nan nan nan
nan nan nan nan nan nan nan nan nan nan nan nan nan nan nan nan nan nan nan nan nan nan nan nan nan nan nan nan nan nan nan nan nan nan nan nan nan nan nan nan nan nan nan nan nan nan nan nan nan nan nan nan nan nan nan nan nan nan nan nan nan nan nan nan nan nan nan nan nan nan nan nan nan nan nan nan nan nan nan nan nan nan nan nan nan
nan nan nan nan nan nan nan nan nan nan nan nan nan nan nan nan nan nan nan nan nan nan nan nan nan nan nan nan nan nan nan nan nan nan nan nan nan nan nan nan nan nan nan nan nan nan nan nan nan nan nan nan nan nan nan nan nan nan nan nan nan nan nan nan nan nan nan nan nan nan nan nan nan nan nan nan nan nan nan nan nan nan nan nan nan
43 43 nan nan nan nan nan nan nan nan nan nan nan nan nan nan nan nan nan nan nan nan nan nan nan nan nan nan nan nan nan nan nan nan nan nan nan nan nan nan nan nan nan nan nan nan nan nan nan nan nan nan nan nan nan nan nan nan nan nan nan nan nan nan nan nan nan nan nan nan nan nan nan nan nan nan nan nan nan nan nan nan nan nan nan
45 44 nan nan nan nan nan nan nan nan nan nan nan nan nan nan nan nan nan nan nan nan nan nan nan nan nan nan nan nan nan nan nan nan nan nan nan nan nan nan nan nan nan nan nan nan nan nan nan nan nan nan nan nan nan nan nan nan nan nan nan nan nan nan nan nan nan nan nan nan nan nan nan nan nan nan nan nan nan nan nan nan nan nan nan
46 46 nan nan nan nan nan nan nan nan nan nan nan nan nan nan nan nan nan nan nan nan nan nan nan nan nan nan nan nan nan nan nan nan nan nan nan nan nan nan nan nan nan nan nan nan nan nan nan nan nan nan nan nan nan nan nan nan nan nan nan nan nan nan nan nan nan nan nan nan nan nan nan nan nan nan nan nan nan nan nan nan nan nan nan
nan nan nan nan nan nan nan nan nan nan nan nan nan nan nan nan nan nan nan nan nan nan nan nan nan nan nan nan nan nan nan nan nan nan nan nan nan nan nan nan nan nan nan nan nan nan nan nan nan nan nan nan nan nan nan nan nan nan nan nan nan nan nan nan nan nan nan nan nan nan nan nan nan nan nan nan nan nan nan nan nan nan nan nan nan
nan nan nan nan nan nan nan nan nan nan nan nan nan nan nan nan nan nan nan nan nan nan nan nan nan nan nan nan nan nan nan nan nan nan nan nan nan nan nan nan nan nan nan nan nan nan nan nan nan nan nan nan nan nan nan nan nan nan nan nan nan nan nan nan nan nan nan nan nan nan nan nan nan nan nan nan nan nan nan nan nan nan nan nan nan
Wind_Direction
229 224 222 214 212 211 206 208 207 209 216 227 236 234 231 231 228 225 229 225 233 236 237 240 246 252 257 255 257 261 267 264 253 247 244 237 241 244 239 251 247 232 237 227 247 254 260 258 248 252 268 271 290 284 280 287 291 301 309 311 319 313 310 310 314 17 201 312 314 308 271 271 303 307 276 295 304 336 352 349 344 342 349 348 351
230 228 225 222 217 215 212 211 210 211 216 224 230 234 236 235 231 228 227 220 235 241 245 246 249 258 262 265 264 267 271 273 268 263 258 249 243 247 250 259 262 255 255 249 248 264 268 272 264 266 283 297 295 290 293 286 289 293 301 309 320 316 308 303 326 307 310 251 252 266 274 293 298 319 309 310 327 337 341 346 346 346 348 351 347
237 232 230 229 225 221 219 218 217 215 218 222 225 230 234 234 234 234 228 225 229 236 243 250 255 259 260 262 267 267 271 272 269 271 273 273 269 261 261 265 269 269 271 277 280 278 280 287 285 277 274 285 299 304 294 293 294 300 303 302 309 310 309 316 304 314 311 301 298 282 296 295 312 325 315 326 339 346 348 349 353 1 353 352 351
241 235 232 230 230 228 225 223 224 221 221 221 223 225 231 234 236 236 233 230 232 229 236 246 252 258 260 258 262 265 270 272 273 278 285 284 280 277 271 270 271 271 274 279 284 291 303 300 310 305 297 299 309 307 308 305 302 301 298 301 309 316 312 312 323 318 304 297 284 307 306 292 310 319 321 326 329 330 337 350 348 349 354 348 349
248 240 236 233 230 231 229 227 226 225 224 223 222 224 226 231 235 237 237 233 232 233 233 238 244 250 257 259 260 263 271 275 277 278 275 275 281 278 273 273 275 279 283 284 285 290 295 302 312 308 312 318 321 322 322 309 307 305 305 303 309 311 300 309 313 304 301 308 292 294 296 302 312 311 307 304 316 323 327 330 338 338 342 353 357
252 247 241 238 233 232 231 229 228 229 228 226 224 223 225 229 234 235 239 238 237 237 240 238 241 244 246 251 257 261 265 269 273 275 275 272 273 272 273 273 274 275 276 279 282 286 290 297 302 307 307 314 323 316 309 310 302 302 305 303 305 300 300 298 299 303 306 311 301 278 280 293 288 301 308 302 308 316 320 324 323 325 321 334 348
243 252 248 243 239 235 234 232 231 231 230 229 226 224 224 227 233 236 238 239 241 241 241 241 238 241 242 245 249 255 260 265 268 268 268 268 270 270 269 269 267 268 268 277 283 287 292 294 298 300 303 304 304 307 305 300 303 306 311 310 297 293 292 292 293 298 301 297 287 300 297 292 301 299 305 302 312 320 323 315 316 323 320 327 340
238 231 233 245 245 241 238 234 232 231 231 231 230 227 226 228 231 235 238 239 240 243 245 245 241 242 242 244 246 248 253 257 260 262 263 265 267 266 267 267 269 269 269 272 277 284 290 294 296 297 300 296 296 295 293 292 290 292 297 294 290 290 292 292 291 297 299 298 299 290 289 291 284 303 303 294 294 298 311 314 315 312 306 316 331
247 253 243 240 246 246 243 238 234 232 231 233 233 230 229 230 232 234 236 236 236 237 240 243 243 242 241 243 245 246 249 252 254 256 258 259 261 265 267 267 267 268 269 270 271 274 276 283 289 293 295 303 311 302 294 292 285 288 287 292 294 295 291 290 298 295 293 292 288 290 288 286 297 294 288 297 298 310 311 303 309 308 308 302 311
243 239 235 240 244 241 237 238 241 238 233 231 230 231 230 231 232 232 235 237 236 235 235 237 240 242 242 243 244 246 246 247 251 264 265 261 262 260 261 264 265 268 271 271 270 273 276 278 280 301 306 307 301 295 293 299 300 293 290 287 288 288 290 290 291 294 290 289 291 288 283 290 296 299 305 310 308 305 300 298 292 294 291 298 309
241 239 235 236 241 243 241 236 231 233 238 234 230 233 232 233 230 229 231 236 237 237 236 237 238 239 243 244 245 245 246 248 258 265 270 272 263 261 262 263 265 269 272 275 277 279 277 278 277 274 270 266 268 267 269 274 285 302 303 298 296 292 291 292 292 290 289 292 290 290 293 294 295 297 301 303 300 300 301 296 296 292 291 292 298
242 239 235 236 242 241 235 235 235 227 219 229 235 233 230 223 224 227 235 239 239 240 241 241 241 244 245 247 247 247 248 251 261 264 269 272 267 263 263 265 267 271 273 274 274 275 277 278 274 273 275 278 279 277 278 280 281 284 286 286 292 303 302 297 295 290 292 293 290 292 291 295 294 288 291 291 291 290 293 291 296 297 297 299 306
231 235 233 233 238 240 239 238 236 232 221 211 225 243 244 242 232 222 220 224 234 244 243 243 245 247 251 253 253 252 250 256 263 266 270 273 272 266 262 264 267 270 274 277 276 275 276 276 276 277 276 274 276 277 277 278 280 277 277 277 277 281 288 286 283 283 288 288 289 286 290 290 287 292 294 291 290 290 290 288 292 294 299 302 307
230 224 226 232 237 240 242 240 239 240 235 223 207 215 241 246 241 230 228 237 234 233 235 240 241 241 239 241 244 246 248 253 265 268 271 273 272 267 261 263 264 267 272 276 275 274 275 278 283 285 282 278 276 277 276 277 277 276 273 273 272 268 269 277 281 281 285 286 286 286 283 282 284 290 288 288 287 289 289 293 293 293 295 300 303
241 235 227 224 229 235 239 238 236 237 240 235 223 210 223 236 234 227 225 233 245 244 236 228 230 235 236 236 234 232 233 233 247 256 261 265 265 261 259 258 260 261 266 270 273 274 276 281 286 291 289 287 282 279 279 278 277 275 275 273 274 275 272 271 272 273 274 277 277 279 283 287 292 292 288 285 289 291 294 297 297 298 298 297 296
239 240 234 230 227 233 238 239 238 241 244 242 236 224 225 234 235 231 229 230 227 237 243 245 240 234 232 236 240 240 242 239 235 236 239 242 248 250 255 259 261 264 267 271 273 275 278 282 286 291 292 289 285 279 280 280 276 275 274 273 274 273 272 272 270 273 274 275 280 280 272 269 275 284 283 281 282 285 287 289 289 288 286 282 283
230 236 238 231 230 231 233 235 237 244 247 245 239 235 236 242 239 237 237 237 236 237 241 242 242 241 240 242 244 246 247 252 250 245 241 239 243 246 250 255 258 263 266 266 272 277 282 285 287 289 289 286 284 280 279 285 282 279 276 274 274 273 270 271 272 270 271 273 272 274 289 285 274 274 275 282 282 284 284 277 276 278 277 279 282
226 225 226 224 224 226 228 230 234 241 244 243 243 243 242 241 240 240 244 244 239 239 242 244 244 244 243 241 244 247 250 257 260 254 249 247 248 248 250 254 256 261 263 266 271 273 278 291 286 286 285 282 279 276 273 281 285 284 281 279 279 277 271 268 270 270 268 267 269 261 265 265 269 267 264 268 276 278 276 276 281 280 279 280 281
231 224 218 220 222 224 230 236 237 240 242 239 236 242 244 243 240 243 246 244 240 239 238 239 243 248 252 251 251 252 251 251 251 247 248 251 255 255 255 257 258 261 266 269 269 269 268 277 283 280 279 278 276 273 270 275 281 284 284 283 282 280 277 272 270 269 268 268 267 266 265 261 265 268 268 265 266 269 272 274 278 279 278 281 282
228 224 220 218 220 220 226 233 233 234 239 240 234 232 231 231 235 240 243 246 247 248 246 242 241 245 248 250 252 252 253 254 254 253 254 254 257 259 261 264 265 268 269 266 266 267 268 267 266 265 272 275 274 270 266 263 271 273 275 278 279 280 277 273 270 270 268 269 268 267 268 265 265 267 267 268 268 269 268 268 269 272 274 nan nan
241 238 231 226 224 225 224 228 232 230 229 231 233 232 227 228 234 238 240 241 241 244 246 245 245 245 247 249 254 255 256 257 255 253 251 251 250 254 261 263 263 267 273 275 278 277 275 272 271 272 274 278 276 269 266 266 269 272 272 272 271 270 271 269 267 265 267 267 268 268 267 266 265 266 267 267 268 269 268 265 265 nan nan nan nan
249 249 244 239 233 225 219 223 232 230 228 232 235 233 231 232 233 237 246 247 247 243 243 245 245 246 247 247 249 251 254 255 255 251 250 249 248 248 254 258 265 265 268 274 274 271 273 275 274 274 276 278 275 270 267 270 274 275 276 273 267 266 268 268 267 267 266 267 267 267 266 266 265 264 265 266 267 267 267 266 nan nan nan nan nan
248 249 245 240 235 229 225 nan 240 240 237 241 247 246 245 245 242 240 243 249 247 248 250 253 256 255 252 252 252 252 250 249 248 252 248 243 242 242 243 247 250 263 272 274 278 278 274 272 271 276 274 273 271 268 268 270 273 277 279 270 270 273 274 271 270 269 267 267 267 266 264 264 265 265 266 267 nan nan nan nan nan nan nan nan nan
nan nan nan nan nan nan nan nan nan nan nan nan 254 251 249 249 248 248 247 254 258 256 254 257 259 259 257 252 251 253 252 250 247 246 248 244 239 239 237 233 240 258 275 277 274 273 273 271 268 275 273 271 269 264 262 266 268 274 277 283 284 283 278 276 272 269 268 267 266 264 263 265 268 268 268 nan 269 nan nan nan nan nan nan nan nan
nan nan nan nan nan nan nan nan nan nan nan nan nan nan nan nan 251 249 250 251 256 259 257 257 257 258 256 253 250 249 249 250 249 244 242 244 242 239 239 235 nan 238 259 272 275 270 265 261 263 267 266 265 258 248 244 255 270 276 286 287 285 277 278 277 275 271 266 265 265 265 264 264 265 nan 269 270 nan nan nan nan nan nan nan nan nan
nan nan nan nan nan nan nan nan nan nan nan nan nan nan 256 253 252 250 250 254 255 256 256 259 257 255 255 253 252 252 251 252 252 248 245 242 nan nan nan nan nan 240 248 257 256 259 259 257 251 245 248 250 245 242 252 266 nan nan nan nan nan 276 276 276 275 272 270 266 264 264 263 261 262 nan nan nan nan nan nan nan nan nan nan nan nan
nan nan nan nan nan nan nan nan nan nan nan nan nan nan nan 253 252 251 251 250 253 256 255 253 251 252 254 nan nan nan nan nan nan nan nan nan nan nan nan nan nan nan 245 246 247 254 263 272 272 271 262 261 260 266 nan nan nan nan 277 nan 272 272 272 273 275 275 272 269 266 265 264 nan nan nan nan nan nan nan nan nan nan nan nan nan nan
nan nan nan nan nan nan nan nan nan nan nan nan nan nan nan 249 252 251 249 250 nan 253 nan 252 250 249 nan nan nan nan nan nan nan nan nan nan nan 253 nan nan nan nan nan nan nan 252 261 274 285 284 278 274 nan nan nan nan nan nan 270 270 271 271 273 273 270 270 270 nan nan nan nan nan nan nan nan nan nan nan nan nan nan nan nan nan nan
nan nan nan nan nan nan nan nan nan nan nan nan nan nan nan nan nan 251 252 251 249 nan nan nan nan nan nan nan nan nan nan nan nan nan nan 250 253 255 254 nan nan nan nan nan nan nan nan nan nan nan nan nan nan nan nan nan nan nan 266 267 268 268 269 nan nan nan nan nan nan nan nan nan nan nan nan nan nan nan nan nan nan nan nan nan nan
nan nan nan nan nan nan nan nan nan nan nan nan nan nan nan nan nan nan nan nan nan 247 nan nan nan nan nan nan nan nan nan nan nan nan nan nan 250 251 252 nan nan nan nan nan nan nan nan nan nan nan nan nan nan nan nan nan nan nan nan nan nan nan nan nan nan nan nan nan nan nan nan nan nan nan nan nan nan nan nan nan nan nan nan nan nan
nan nan nan nan nan nan nan nan nan nan nan nan nan nan nan nan nan nan nan nan nan nan nan nan nan nan nan nan nan nan nan nan nan nan nan nan nan 249 247 247 246 246 247 nan 259 nan nan nan 266 nan nan nan nan nan nan nan nan nan nan nan nan nan nan nan nan nan nan nan nan nan nan nan nan nan nan nan nan nan nan nan nan nan nan nan nan
nan nan nan nan nan nan nan nan nan nan nan nan nan nan nan nan nan nan nan nan nan nan nan nan nan nan nan nan nan nan nan nan nan nan nan nan nan nan nan nan 243 244 246 259 259 259 nan nan nan nan nan nan nan nan nan nan nan nan nan nan nan nan nan nan nan nan nan nan nan nan nan nan nan nan nan nan nan nan nan nan nan nan nan nan nan
nan nan nan nan nan nan nan nan nan nan nan nan nan nan nan nan nan nan nan nan nan nan nan nan nan nan nan nan nan nan nan nan nan nan nan nan nan nan nan nan nan nan nan nan nan nan nan nan nan nan nan nan nan nan nan nan nan nan nan nan nan nan nan nan nan nan nan nan nan nan nan nan nan nan nan nan nan nan nan nan nan nan nan nan nan
nan nan nan nan nan nan nan nan nan nan nan nan nan nan nan nan nan nan nan nan nan nan nan nan nan nan nan nan nan nan nan nan nan nan nan nan nan nan nan nan nan nan nan nan nan nan nan nan nan nan nan nan nan nan nan nan nan nan nan nan nan nan nan nan nan nan nan nan nan nan nan nan nan nan nan nan nan nan nan nan nan nan nan nan nan
nan nan nan nan nan nan nan nan nan nan nan nan nan nan nan nan nan nan nan nan nan nan nan nan nan nan nan nan nan nan nan nan nan nan nan nan nan nan nan nan nan nan nan nan nan nan nan nan nan nan nan nan nan nan nan nan nan nan nan nan nan nan nan nan nan nan nan nan nan nan nan nan nan nan nan nan nan nan nan nan nan nan nan nan nan
nan nan nan nan nan nan nan nan nan nan nan nan nan nan nan nan nan nan nan nan nan nan nan nan nan nan nan nan nan nan nan nan nan nan nan nan nan nan nan nan nan nan nan nan nan nan nan nan nan nan nan nan nan nan nan nan nan nan nan nan nan nan nan nan nan nan nan nan nan nan nan nan nan nan nan nan nan nan nan nan nan nan nan nan nan
nan nan nan nan nan nan nan nan nan nan nan nan nan nan nan nan nan nan nan nan nan nan nan nan nan nan nan nan nan nan nan nan nan nan nan nan nan nan nan nan nan nan nan nan nan nan nan nan nan nan nan nan nan nan nan nan nan nan nan nan nan nan nan nan nan nan nan nan nan nan nan nan nan nan nan nan nan nan nan nan nan nan nan nan nan
nan nan nan nan nan nan nan nan nan nan nan nan nan nan nan nan nan nan nan nan nan nan nan nan nan nan nan nan nan nan nan nan nan nan nan nan nan nan nan nan nan nan nan nan nan nan nan nan nan nan nan nan nan nan nan nan nan nan nan nan nan nan nan nan nan nan nan nan nan nan nan nan nan nan nan nan nan nan nan nan nan nan nan nan nan
nan nan nan nan nan nan nan nan nan nan nan nan nan nan nan nan nan nan nan nan nan nan nan nan nan nan nan nan nan nan nan nan nan nan nan nan nan nan nan nan nan nan nan nan nan nan nan nan nan nan nan nan nan nan nan nan nan nan nan nan nan nan nan nan nan nan nan nan nan nan nan nan nan nan nan nan nan nan nan nan nan nan nan nan nan
nan nan nan nan nan nan nan nan nan nan nan nan nan nan nan nan nan nan nan nan nan nan nan nan nan nan nan nan nan nan nan nan nan nan nan nan nan nan nan nan nan nan nan nan nan nan nan nan nan nan nan nan nan nan nan nan nan nan nan nan nan nan nan nan nan nan nan nan nan nan nan nan nan nan nan nan nan nan nan nan nan nan nan nan nan
nan nan nan nan nan nan nan nan nan nan nan nan nan nan nan nan nan nan nan nan nan nan nan nan nan nan nan nan nan nan nan nan nan nan nan nan nan nan nan nan nan nan nan nan nan nan nan nan nan nan nan nan nan nan nan nan nan nan nan nan nan nan nan nan nan nan nan nan nan nan nan nan nan nan nan nan nan nan nan nan nan nan nan nan nan
nan nan nan nan nan nan nan nan nan nan nan nan nan nan nan nan nan nan nan nan nan nan nan nan nan nan nan nan nan nan nan nan nan nan nan nan nan nan nan nan nan nan nan nan nan nan nan nan nan nan nan nan nan nan nan nan nan nan nan nan nan nan nan nan nan nan nan nan nan nan nan nan nan nan nan nan nan nan nan nan nan nan nan nan nan
nan nan nan nan nan nan nan nan nan nan nan nan nan nan nan nan nan nan nan nan nan nan nan nan nan nan nan nan nan nan nan nan nan nan nan nan nan nan nan nan nan nan nan nan nan nan nan nan nan nan nan nan nan nan nan nan nan nan nan nan nan nan nan nan nan nan nan nan nan nan nan nan nan nan nan nan nan nan nan nan nan nan nan nan nan
nan nan nan nan nan nan nan nan nan nan nan nan nan nan nan nan nan nan nan nan nan nan nan nan nan nan nan nan nan nan nan nan nan nan nan nan nan nan nan nan nan nan nan nan nan nan nan nan nan nan nan nan nan nan nan nan nan nan nan nan nan nan nan nan nan nan nan nan nan nan nan nan nan nan nan nan nan nan nan nan nan nan nan nan nan
nan nan nan nan nan nan nan nan nan nan nan nan nan nan nan nan nan nan nan nan nan nan nan nan nan nan nan nan nan nan nan nan nan nan nan nan nan nan nan nan nan nan nan nan nan nan nan nan nan nan nan nan nan nan nan nan nan nan nan nan nan nan nan nan nan nan nan nan nan nan nan nan nan nan nan nan nan nan nan nan nan nan nan nan nan
nan nan nan nan nan nan nan nan nan nan nan nan nan nan nan nan nan nan nan nan nan nan nan nan nan nan nan nan nan nan nan nan nan nan nan nan nan nan nan nan nan nan nan nan nan nan nan nan nan nan nan nan nan nan nan nan nan nan nan nan nan nan nan nan nan nan nan nan nan nan nan nan nan nan nan nan nan nan nan nan nan nan nan nan nan
274 274 nan nan nan nan nan nan nan nan nan nan nan nan nan nan nan nan nan nan nan nan nan nan nan nan nan nan nan nan nan nan nan nan nan nan nan nan nan nan nan nan nan nan nan nan nan nan nan nan nan nan nan nan nan nan nan nan nan nan nan nan nan nan nan nan nan nan nan nan nan nan nan nan nan nan nan nan nan nan nan nan nan nan nan
275 274 nan nan nan nan nan nan nan nan nan nan nan nan nan nan nan nan nan nan nan nan nan nan nan nan nan nan nan nan nan nan nan nan nan nan nan nan nan nan nan nan nan nan nan nan nan nan nan nan nan nan nan nan nan nan nan nan nan nan nan nan nan nan nan nan nan nan nan nan nan nan nan nan nan nan nan nan nan nan nan nan nan nan nan
276 275 nan nan nan nan nan nan nan nan nan nan nan nan nan nan nan nan nan nan nan nan nan nan nan nan nan nan nan nan nan nan nan nan nan nan nan nan nan nan nan nan nan nan nan nan nan nan nan nan nan nan nan nan nan nan nan nan nan nan nan nan nan nan nan nan nan nan nan nan nan nan nan nan nan nan nan nan nan nan nan nan nan nan nan
nan nan nan nan nan nan nan nan nan nan nan nan nan nan nan nan nan nan nan nan nan nan nan nan nan nan nan nan nan nan nan nan nan nan nan nan nan nan nan nan nan nan nan nan nan nan nan nan nan nan nan nan nan nan nan nan nan nan nan nan nan nan nan nan nan nan nan nan nan nan nan nan nan nan nan nan nan nan nan nan nan nan nan nan nan
nan nan nan nan nan nan nan nan nan nan nan nan nan nan nan nan nan nan nan nan nan nan nan nan nan nan nan nan nan nan nan nan nan nan nan nan nan nan nan nan nan nan nan nan nan nan nan nan nan nan nan nan nan nan nan nan nan nan nan nan nan nan nan nan nan nan nan nan nan nan nan nan nan nan nan nan nan nan nan nan nan nan nan nan nan